Location: Cardiff
(53.7833°N, 113.6000°W)
Time: 14:08:10
(UTC+00:00)

RS-15 - Pass Details

Date: 12 December 2023
Orbit: 1893 x 2151 km, 64.8° (Epoch: 20 February)

Event Time Altitude Azimuth Distance (km) Brightness Sun altitude
Exits shadow 11:26:23 68° 216° (SW) 2,065 7.8 -36.2°
Drops below altitude 10° 11:36:34 10° 156° (SSE) 4,289 10.0 -34.8°
Sets 11:39:46 0° 154° (SSE) 5,272 10.5 -34.3°
